Tabellarische Ansicht des 23.9.2011


Die einzelnen Werte des Tages

Uhrzeit Temperatur Luftdruck Luftfeuchte Wind Hi-Wind Taupunkt THW Index Wind Chill Heat Index Solar- strahlung Regen

00:00

12.1 C

1017.0 hpa

73 %

3.2 km/h aus 107

9.7 km/h aus WSW

7.4 C

11.7 C

12.1 C

11.7 C

0 W/m

0.00 mm

00:05

12.1 C

1017.0 hpa

72 %

6.4 km/h aus 108

14.5 km/h aus WNW

7.2 C

11.5 C

11.8 C

11.8 C

0 W/m

0.00 mm

00:10

12.1 C

1017.0 hpa

72 %

6.4 km/h aus 106

12.9 km/h aus W

7.2 C

11.5 C

11.8 C

11.8 C

0 W/m

0.00 mm

00:15

12.1 C

1017.0 hpa

72 %

3.2 km/h aus 98

8.0 km/h aus W

7.2 C

11.7 C

12.1 C

11.7 C

0 W/m

0.00 mm

00:20

12.0 C

1017.0 hpa

73 %

4.8 km/h aus 109

9.7 km/h aus WSW

7.3 C

11.7 C

12.0 C

11.7 C

0 W/m

0.00 mm

00:25

11.8 C

1017.0 hpa

73 %

3.2 km/h aus 114

8.0 km/h aus WSW

7.1 C

11.5 C

11.8 C

11.5 C

0 W/m

0.00 mm

00:30

11.7 C

1017.0 hpa

74 %

1.6 km/h aus 113

6.4 km/h aus WSW

7.2 C

11.4 C

11.7 C

11.4 C

0 W/m

0.00 mm

00:35

11.7 C

1017.0 hpa

75 %

1.6 km/h aus 113

6.4 km/h aus WSW

7.4 C

11.4 C

11.7 C

11.4 C

0 W/m

0.00 mm

00:40

11.6 C

1017.0 hpa

75 %

1.6 km/h aus 110

8.0 km/h aus WSW

7.3 C

11.3 C

11.6 C

11.3 C

0 W/m

0.00 mm

00:45

11.6 C

1017.0 hpa

75 %

3.2 km/h aus 112

6.4 km/h aus WSW

7.3 C

11.3 C

11.6 C

11.3 C

0 W/m

0.00 mm

00:50

11.7 C

1017.0 hpa

75 %

1.6 km/h aus 109

4.8 km/h aus WSW

7.4 C

11.4 C

11.7 C

11.4 C

0 W/m

0.00 mm

00:55

11.6 C

1017.0 hpa

75 %

0.0 km/h aus 115

4.8 km/h aus WSW

7.3 C

11.3 C

11.6 C

11.3 C

0 W/m

0.00 mm

01:00

11.3 C

1017.0 hpa

77 %

0.0 km/h aus 112

4.8 km/h aus WSW

7.4 C

11.1 C

11.3 C

11.1 C

0 W/m

0.00 mm

01:05

11.2 C

1017.0 hpa

78 %

1.6 km/h aus 107

4.8 km/h aus WSW

7.5 C

11.0 C

11.2 C

11.0 C

0 W/m

0.00 mm

01:10

10.9 C

1017.0 hpa

80 %

1.6 km/h aus 107

3.2 km/h aus WSW

7.6 C

10.8 C

10.9 C

10.8 C

0 W/m

0.00 mm

01:15

10.7 C

1017.0 hpa

82 %

1.6 km/h aus 106

3.2 km/h aus WSW

7.7 C

10.6 C

10.7 C

10.6 C

0 W/m

0.00 mm

01:20

10.4 C

1017.0 hpa

83 %

1.6 km/h aus 114

3.2 km/h aus WSW

7.6 C

10.4 C

10.4 C

10.4 C

0 W/m

0.00 mm

01:25

10.3 C

1017.0 hpa

84 %

0.0 km/h aus 110

1.6 km/h aus WSW

7.7 C

10.3 C

10.3 C

10.3 C

0 W/m

0.00 mm

01:30

10.1 C

1016.8 hpa

84 %

0.0 km/h aus 113

1.6 km/h aus WSW

7.5 C

10.1 C

10.1 C

10.1 C

0 W/m

0.00 mm

01:35

9.8 C

1016.8 hpa

84 %

0.0 km/h aus 114

1.6 km/h aus WSW

7.3 C

9.9 C

9.8 C

9.9 C

0 W/m

0.00 mm

01:40

9.7 C

1016.8 hpa

85 %

0.0 km/h aus 110

3.2 km/h aus WSW

7.3 C

9.7 C

9.7 C

9.7 C

0 W/m

0.00 mm

01:45

9.6 C

1016.8 hpa

85 %

1.6 km/h aus 110

3.2 km/h aus WSW

7.2 C

9.6 C

9.6 C

9.6 C

0 W/m

0.00 mm

01:50

9.4 C

1016.8 hpa

85 %

0.0 km/h aus 108

1.6 km/h aus WSW

7.0 C

9.4 C

9.4 C

9.4 C

0 W/m

0.00 mm

01:55

9.2 C

1016.8 hpa

86 %

0.0 km/h aus 112

0.0 km/h aus ---

7.0 C

9.3 C

9.2 C

9.3 C

0 W/m

0.00 mm

02:00

9.1 C

1016.9 hpa

86 %

0.0 km/h aus 114

3.2 km/h aus WSW

6.8 C

9.1 C

9.1 C

9.1 C

0 W/m

0.00 mm

02:05

8.8 C

1016.9 hpa

86 %

1.6 km/h aus 103

3.2 km/h aus WSW

6.6 C

8.8 C

8.8 C

8.8 C

0 W/m

0.00 mm

02:10

8.8 C

1016.9 hpa

87 %

3.2 km/h aus 112

4.8 km/h aus WSW

6.7 C

8.8 C

8.8 C

8.8 C

0 W/m

0.00 mm

02:15

8.8 C

1016.8 hpa

88 %

1.6 km/h aus 113

3.2 km/h aus WSW

7.0 C

8.9 C

8.8 C

8.9 C

0 W/m

0.00 mm

02:20

8.8 C

1016.8 hpa

88 %

1.6 km/h aus 113

3.2 km/h aus WSW

7.0 C

8.9 C

8.8 C

8.9 C

0 W/m

0.00 mm

02:25

8.9 C

1016.8 hpa

88 %

1.6 km/h aus 110

4.8 km/h aus WSW

7.0 C

8.9 C

8.9 C

8.9 C

0 W/m

0.00 mm

02:30

8.8 C

1016.7 hpa

89 %

4.8 km/h aus 110

8.0 km/h aus WSW

7.1 C

8.6 C

8.5 C

8.9 C

0 W/m

0.00 mm

02:35

8.9 C

1016.7 hpa

89 %

4.8 km/h aus 114

6.4 km/h aus WSW

7.2 C

8.7 C

8.6 C

9.1 C

0 W/m

0.00 mm

02:40

9.1 C

1016.7 hpa

89 %

3.2 km/h aus 114

4.8 km/h aus WSW

7.4 C

9.2 C

9.1 C

9.2 C

0 W/m

0.00 mm

02:45

9.2 C

1016.6 hpa

89 %

3.2 km/h aus 108

4.8 km/h aus WSW

7.4 C

9.3 C

9.2 C

9.3 C

0 W/m

0.00 mm

02:50

9.3 C

1016.6 hpa

90 %

3.2 km/h aus 107

6.4 km/h aus WSW

7.7 C

9.4 C

9.3 C

9.4 C

0 W/m

0.00 mm

02:55

9.6 C

1016.6 hpa

89 %

4.8 km/h aus 116

9.7 km/h aus WSW

7.8 C

9.4 C

9.3 C

9.7 C

0 W/m

0.00 mm

03:00

9.8 C

1016.5 hpa

89 %

4.8 km/h aus 105

12.9 km/h aus SW

8.1 C

9.8 C

9.6 C

10.0 C

0 W/m

0.00 mm

03:05

10.2 C

1016.5 hpa

88 %

4.8 km/h aus 103

9.7 km/h aus SSW

8.3 C

10.1 C

10.0 C

10.3 C

0 W/m

0.00 mm

03:10

10.4 C

1016.5 hpa

87 %

4.8 km/h aus 98

8.0 km/h aus SSW

8.3 C

10.3 C

10.3 C

10.4 C

0 W/m

0.00 mm

03:15

10.5 C

1016.5 hpa

86 %

4.8 km/h aus 108

8.0 km/h aus SSW

8.3 C

10.4 C

10.4 C

10.6 C

0 W/m

0.00 mm

03:20

10.6 C

1016.5 hpa

85 %

4.8 km/h aus 104

9.7 km/h aus SSW

8.1 C

10.4 C

10.4 C

10.6 C

0 W/m

0.00 mm

03:25

10.7 C

1016.5 hpa

85 %

3.2 km/h aus 102

6.4 km/h aus SSW

8.2 C

10.7 C

10.7 C

10.7 C

0 W/m

0.00 mm

03:30

10.6 C

1016.5 hpa

85 %

4.8 km/h aus 104

8.0 km/h aus SSW

8.2 C

10.5 C

10.5 C

10.6 C

0 W/m

0.00 mm

03:35

10.6 C

1016.5 hpa

85 %

3.2 km/h aus 103

8.0 km/h aus SSW

8.2 C

10.6 C

10.6 C

10.6 C

0 W/m

0.00 mm

03:40

10.8 C

1016.5 hpa

83 %

4.8 km/h aus 104

8.0 km/h aus SSW

8.0 C

10.6 C

10.7 C

10.7 C

0 W/m

0.00 mm

03:45

10.8 C

1016.5 hpa

83 %

4.8 km/h aus 107

8.0 km/h aus SSW

8.1 C

10.7 C

10.8 C

10.8 C

0 W/m

0.00 mm

03:50

10.8 C

1016.5 hpa

83 %

3.2 km/h aus 110

6.4 km/h aus SSW

8.0 C

10.7 C

10.8 C

10.7 C

0 W/m

0.00 mm

03:55

10.8 C

1016.5 hpa

83 %

3.2 km/h aus 96

4.8 km/h aus SSW

8.0 C

10.7 C

10.8 C

10.7 C

0 W/m

0.00 mm

04:00

10.7 C

1016.5 hpa

83 %

3.2 km/h aus 108

6.4 km/h aus SSW

8.0 C

10.7 C

10.7 C

10.7 C

0 W/m

0.00 mm

04:05

10.6 C

1016.5 hpa

85 %

4.8 km/h aus 107

6.4 km/h aus SSW

8.1 C

10.4 C

10.4 C

10.6 C

0 W/m

0.00 mm

04:10

10.4 C

1016.5 hpa

85 %

6.4 km/h aus 100

11.3 km/h aus SSW

8.0 C

9.9 C

9.9 C

10.4 C

0 W/m

0.00 mm

04:15

10.6 C

1016.5 hpa

85 %

8.0 km/h aus 105

16.1 km/h aus SSW

8.1 C

9.7 C

9.7 C

10.6 C

0 W/m

0.00 mm

04:20

10.8 C

1016.5 hpa

83 %

3.2 km/h aus 104

8.0 km/h aus S

8.0 C

10.7 C

10.8 C

10.7 C

0 W/m

0.00 mm

04:25

10.8 C

1016.5 hpa

83 %

4.8 km/h aus 106

8.0 km/h aus S

8.0 C

10.6 C

10.7 C

10.7 C

0 W/m

0.00 mm

04:30

10.8 C

1016.4 hpa

83 %

3.2 km/h aus 98

8.0 km/h aus S

8.0 C

10.7 C

10.8 C

10.7 C

0 W/m

0.00 mm

04:35

10.8 C

1016.4 hpa

82 %

3.2 km/h aus 96

6.4 km/h aus S

7.9 C

10.8 C

10.8 C

10.8 C

0 W/m

0.00 mm

04:40

10.8 C

1016.4 hpa

82 %

1.6 km/h aus 100

6.4 km/h aus S

7.8 C

10.7 C

10.8 C

10.7 C

0 W/m

0.00 mm

04:45

10.7 C

1016.4 hpa

83 %

1.6 km/h aus 100

4.8 km/h aus S

8.0 C

10.7 C

10.7 C

10.7 C

0 W/m

0.00 mm

04:50

10.6 C

1016.4 hpa

84 %

3.2 km/h aus 107

6.4 km/h aus S

8.0 C

10.6 C

10.6 C

10.6 C

0 W/m

0.00 mm

04:55

10.5 C

1016.4 hpa

84 %

4.8 km/h aus 103

9.7 km/h aus S

7.9 C

10.4 C

10.4 C

10.5 C

0 W/m

0.00 mm

05:00

10.3 C

1016.2 hpa

84 %

6.4 km/h aus 104

9.7 km/h aus S

7.7 C

9.8 C

9.8 C

10.3 C

0 W/m

0.00 mm

05:05

10.1 C

1016.2 hpa

85 %

8.0 km/h aus 104

9.7 km/h aus S

7.7 C

9.2 C

9.1 C

10.2 C

0 W/m

0.00 mm

05:10

9.8 C

1016.2 hpa

85 %

8.0 km/h aus 107

9.7 km/h aus S

7.4 C

8.8 C

8.8 C

9.9 C

0 W/m

0.00 mm

05:15

9.6 C

1016.2 hpa

86 %

8.0 km/h aus 107

9.7 km/h aus S

7.4 C

8.6 C

8.6 C

9.7 C

0 W/m

0.00 mm

05:20

9.6 C

1016.2 hpa

87 %

4.8 km/h aus 103

11.3 km/h aus S

7.5 C

9.4 C

9.3 C

9.7 C

0 W/m

0.00 mm

05:25

9.5 C

1016.2 hpa

87 %

6.4 km/h aus 100

9.7 km/h aus S

7.4 C

8.9 C

8.8 C

9.6 C

0 W/m

0.00 mm

05:30

9.3 C

1016.1 hpa

87 %

8.0 km/h aus 102

9.7 km/h aus S

7.2 C

8.3 C

8.2 C

9.4 C

0 W/m

0.00 mm

05:35

9.2 C

1016.1 hpa

87 %

6.4 km/h aus 105

9.7 km/h aus S

7.1 C

8.5 C

8.4 C

9.2 C

0 W/m

0.00 mm

05:40

9.2 C

1016.1 hpa

88 %

4.8 km/h aus 108

8.0 km/h aus S

7.3 C

9.0 C

8.9 C

9.3 C

0 W/m

0.00 mm

05:45

9.2 C

1016.1 hpa

88 %

6.4 km/h aus 101

11.3 km/h aus S

7.3 C

8.6 C

8.4 C

9.3 C

0 W/m

0.00 mm

05:50

9.1 C

1016.1 hpa

88 %

6.4 km/h aus 102

9.7 km/h aus S

7.2 C

8.4 C

8.3 C

9.2 C

0 W/m

0.00 mm

05:55

9.1 C

1016.1 hpa

88 %

4.8 km/h aus 106

9.7 km/h aus S

7.2 C

8.9 C

8.8 C

9.2 C

0 W/m

0.00 mm

06:00

9.1 C

1016.1 hpa

88 %

4.8 km/h aus 105

9.7 km/h aus S

7.2 C

8.9 C

8.8 C

9.2 C

0 W/m

0.00 mm

06:05

9.3 C

1016.1 hpa

89 %

4.8 km/h aus 104

9.7 km/h aus S

7.6 C

9.2 C

9.1 C

9.4 C

0 W/m

0.00 mm

06:10

9.5 C

1016.1 hpa

88 %

4.8 km/h aus 98

8.0 km/h aus S

7.6 C

9.3 C

9.2 C

9.6 C

0 W/m

0.00 mm

06:15

9.4 C

1016.1 hpa

88 %

8.0 km/h aus 100

16.1 km/h aus S

7.6 C

8.4 C

8.3 C

9.6 C

0 W/m

0.00 mm

06:20

9.4 C

1016.1 hpa

88 %

6.4 km/h aus 113

9.7 km/h aus S

7.6 C

8.8 C

8.7 C

9.6 C

0 W/m

0.00 mm

06:25

9.6 C

1016.1 hpa

88 %

6.4 km/h aus 108

11.3 km/h aus S

7.7 C

9.1 C

8.9 C

9.7 C

0 W/m

0.00 mm

06:30

9.5 C

1016.1 hpa

88 %

4.8 km/h aus 107

9.7 km/h aus S

7.6 C

9.3 C

9.2 C

9.6 C

0 W/m

0.00 mm

06:35

9.4 C

1016.1 hpa

88 %

4.8 km/h aus 104

9.7 km/h aus S

7.6 C

9.3 C

9.2 C

9.6 C

0 W/m

0.00 mm

06:40

9.3 C

1016.1 hpa

88 %

4.8 km/h aus 108

8.0 km/h aus S

7.4 C

9.1 C

9.0 C

9.4 C

0 W/m

0.00 mm

06:45

9.1 C

1016.1 hpa

88 %

4.8 km/h aus 111

6.4 km/h aus S

7.2 C

8.9 C

8.8 C

9.2 C

0 W/m

0.00 mm

06:50

8.9 C

1016.1 hpa

88 %

4.8 km/h aus 106

6.4 km/h aus S

7.0 C

8.6 C

8.6 C

8.9 C

0 W/m

0.00 mm

06:55

8.7 C

1016.1 hpa

89 %

3.2 km/h aus 105

4.8 km/h aus S

7.0 C

8.8 C

8.7 C

8.8 C

0 W/m

0.00 mm

07:00

8.6 C

1016.1 hpa

89 %

3.2 km/h aus 100

6.4 km/h aus S

6.9 C

8.7 C

8.6 C

8.7 C

0 W/m

0.00 mm

07:05

8.4 C

1016.1 hpa

89 %

3.2 km/h aus 104

4.8 km/h aus S

6.7 C

8.6 C

8.4 C

8.6 C

0 W/m

0.00 mm

07:10

8.4 C

1016.1 hpa

90 %

1.6 km/h aus 114

4.8 km/h aus S

6.8 C

8.5 C

8.4 C

8.5 C

0 W/m

0.00 mm

07:15

8.3 C

1016.1 hpa

90 %

1.6 km/h aus 105

6.4 km/h aus S

6.8 C

8.4 C

8.3 C

8.4 C

0 W/m

0.00 mm

07:20

8.2 C

1016.1 hpa

90 %

1.6 km/h aus 110

3.2 km/h aus S

6.7 C

8.3 C

8.2 C

8.3 C

0 W/m

0.00 mm

07:25

8.1 C

1016.1 hpa

91 %

1.6 km/h aus 107

3.2 km/h aus S

6.7 C

8.2 C

8.1 C

8.2 C

0 W/m

0.00 mm

07:30

8.1 C

1016.2 hpa

91 %

1.6 km/h aus 110

4.8 km/h aus S

6.7 C

8.2 C

8.1 C

8.2 C

0 W/m

0.00 mm

07:35

8.2 C

1016.2 hpa

91 %

3.2 km/h aus 103

4.8 km/h aus S

6.8 C

8.3 C

8.2 C

8.3 C

0 W/m

0.00 mm

07:40

8.1 C

1016.2 hpa

91 %

3.2 km/h aus 103

6.4 km/h aus S

6.7 C

8.2 C

8.1 C

8.2 C

0 W/m

0.00 mm

07:45

8.2 C

1016.4 hpa

92 %

3.2 km/h aus 110

4.8 km/h aus S

6.9 C

8.3 C

8.2 C

8.3 C

0 W/m

0.00 mm

07:50

8.3 C

1016.4 hpa

92 %

4.8 km/h aus 105

8.0 km/h aus S

7.1 C

8.1 C

7.9 C

8.4 C

0 W/m

0.00 mm

07:55

8.6 C

1016.4 hpa

92 %

4.8 km/h aus 102

8.0 km/h aus S

7.4 C

8.4 C

8.2 C

8.8 C

0 W/m

0.00 mm

08:00

9.2 C

1016.5 hpa

92 %

4.8 km/h aus 112

9.7 km/h aus S

8.0 C

9.1 C

8.9 C

9.4 C

0 W/m

0.00 mm

08:05

9.4 C

1016.5 hpa

92 %

3.2 km/h aus 101

8.0 km/h aus S

8.2 C

9.7 C

9.4 C

9.7 C

0 W/m

0.00 mm

08:10

9.7 C

1016.5 hpa

92 %

3.2 km/h aus 104

6.4 km/h aus S

8.4 C

9.9 C

9.7 C

9.9 C

0 W/m

0.00 mm

08:15

9.9 C

1016.5 hpa

92 %

4.8 km/h aus 111

8.0 km/h aus S

8.6 C

9.9 C

9.7 C

10.1 C

0 W/m

0.00 mm

08:20

10.0 C

1016.5 hpa

92 %

6.4 km/h aus 105

9.7 km/h aus S

8.8 C

9.6 C

9.4 C

10.2 C

0 W/m

0.00 mm

08:25

10.2 C

1016.5 hpa

91 %

4.8 km/h aus 112

8.0 km/h aus S

8.8 C

10.2 C

10.1 C

10.4 C

0 W/m

0.00 mm

08:30

10.6 C

1016.6 hpa

91 %

4.8 km/h aus 114

9.7 km/h aus S

9.2 C

10.6 C

10.5 C

10.7 C

0 W/m

0.00 mm

08:35

10.9 C

1016.6 hpa

90 %

4.8 km/h aus 100

11.3 km/h aus S

9.3 C

10.9 C

10.8 C

11.0 C

0 W/m

0.00 mm

08:40

11.0 C

1016.6 hpa

90 %

6.4 km/h aus 109

11.3 km/h aus S

9.4 C

10.7 C

10.6 C

11.1 C

0 W/m

0.00 mm

08:45

11.1 C

1016.6 hpa

89 %

6.4 km/h aus 111

11.3 km/h aus S

9.3 C

10.7 C

10.6 C

11.2 C

0 W/m

0.00 mm

08:50

11.2 C

1016.6 hpa

88 %

6.4 km/h aus 103

11.3 km/h aus SSW

9.3 C

10.8 C

10.7 C

11.2 C

0 W/m

0.00 mm

08:55

11.2 C

1016.6 hpa

88 %

6.4 km/h aus 113

11.3 km/h aus SSW

9.3 C

10.8 C

10.8 C

11.3 C

0 W/m

0.00 mm

09:00

11.4 C

1016.5 hpa

87 %

8.0 km/h aus 111

16.1 km/h aus SSW

9.4 C

10.7 C

10.7 C

11.4 C

0 W/m

0.00 mm

09:05

11.7 C

1016.5 hpa

87 %

8.0 km/h aus 106

16.1 km/h aus S

9.6 C

11.0 C

11.0 C

11.7 C

0 W/m

0.00 mm

09:10

11.9 C

1016.5 hpa

86 %

9.7 km/h aus 112

16.1 km/h aus S

9.6 C

10.9 C

10.9 C

11.8 C

0 W/m

0.00 mm

09:15

11.9 C

1016.6 hpa

85 %

8.0 km/h aus 108

14.5 km/h aus SSW

9.5 C

11.2 C

11.3 C

11.9 C

0 W/m

0.00 mm

09:20

12.3 C

1016.6 hpa

85 %

8.0 km/h aus 103

16.1 km/h aus SSW

9.8 C

11.6 C

11.7 C

12.2 C

0 W/m

0.00 mm

09:25

12.3 C

1016.6 hpa

84 %

8.0 km/h aus 107

16.1 km/h aus SSW

9.7 C

11.7 C

11.7 C

12.3 C

0 W/m

0.00 mm

09:30

12.4 C

1016.6 hpa

84 %

9.7 km/h aus 108

14.5 km/h aus SSW

9.8 C

11.6 C

11.6 C

12.4 C

0 W/m

0.00 mm

09:35

12.4 C

1016.6 hpa

84 %

6.4 km/h aus 105

11.3 km/h aus SW

9.8 C

12.1 C

12.2 C

12.4 C

0 W/m

0.00 mm

09:40

12.5 C

1016.6 hpa

83 %

8.0 km/h aus 106

14.5 km/h aus SSW

9.7 C

11.8 C

11.9 C

12.4 C

0 W/m

0.00 mm

09:45

12.6 C

1016.5 hpa

83 %

8.0 km/h aus 109

17.7 km/h aus SSW

9.7 C

11.9 C

12.0 C

12.4 C

0 W/m

0.00 mm

09:50

12.4 C

1016.5 hpa

84 %

11.3 km/h aus 107

20.9 km/h aus S

9.8 C

11.3 C

11.3 C

12.3 C

0 W/m

0.00 mm

09:55

12.6 C

1016.5 hpa

84 %

11.3 km/h aus 112

19.3 km/h aus SSW

9.9 C

11.4 C

11.5 C

12.5 C

0 W/m

0.00 mm

10:00

12.7 C

1016.7 hpa

83 %

11.3 km/h aus 110

19.3 km/h aus SSE

9.9 C

11.6 C

11.7 C

12.6 C

0 W/m

0.00 mm

10:05

12.9 C

1016.7 hpa

82 %

11.3 km/h aus 106

19.3 km/h aus S

9.9 C

11.8 C

11.9 C

12.8 C

0 W/m

0.00 mm

10:10

12.9 C

1016.7 hpa

82 %

11.3 km/h aus 114

19.3 km/h aus SSW

9.9 C

11.9 C

12.0 C

12.8 C

0 W/m

0.00 mm

10:15

13.2 C

1016.7 hpa

82 %

8.0 km/h aus 109

16.1 km/h aus SSW

10.2 C

12.7 C

12.8 C

13.1 C

0 W/m

0.00 mm

10:20

13.5 C

1016.7 hpa

82 %

11.3 km/h aus 107

22.5 km/h aus S

10.5 C

12.6 C

12.7 C

13.4 C

0 W/m

0.00 mm

10:25

13.6 C

1016.7 hpa

82 %

14.5 km/h aus 103

22.5 km/h aus SSW

10.5 C

11.8 C

11.9 C

13.4 C

0 W/m

0.00 mm

10:30

13.5 C

1016.8 hpa

82 %

12.9 km/h aus 112

22.5 km/h aus S

10.5 C

12.2 C

12.3 C

13.4 C

0 W/m

0.00 mm

10:35

13.6 C

1016.8 hpa

83 %

16.1 km/h aus 111

24.1 km/h aus SSW

10.7 C

11.4 C

11.6 C

13.4 C

0 W/m

0.00 mm

10:40

13.9 C

1016.8 hpa

83 %

14.5 km/h aus 112

20.9 km/h aus S

11.0 C

12.2 C

12.3 C

13.8 C

0 W/m

0.00 mm

10:45

14.1 C

1016.7 hpa

81 %

12.9 km/h aus 110

20.9 km/h aus SW

10.9 C

12.9 C

13.0 C

14.0 C

0 W/m

0.00 mm

10:50

14.1 C

1016.7 hpa

81 %

11.3 km/h aus 110

20.9 km/h aus S

10.9 C

13.3 C

13.4 C

14.0 C

0 W/m

0.00 mm

10:55

14.1 C

1016.7 hpa

81 %

11.3 km/h aus 111

19.3 km/h aus S

10.9 C

13.3 C

13.4 C

14.0 C

0 W/m

0.00 mm

11:00

14.3 C

1016.6 hpa

82 %

9.7 km/h aus 110

16.1 km/h aus SSW

11.2 C

13.7 C

13.8 C

14.2 C

0 W/m

0.00 mm

11:05

14.3 C

1016.6 hpa

82 %

11.3 km/h aus 110

22.5 km/h aus SSW

11.3 C

13.6 C

13.7 C

14.2 C

0 W/m

0.00 mm

11:10

14.4 C

1016.6 hpa

83 %

12.9 km/h aus 101

20.9 km/h aus SSE

11.6 C

13.3 C

13.4 C

14.4 C

0 W/m

0.00 mm

11:15

14.7 C

1016.5 hpa

83 %

11.3 km/h aus 107

25.7 km/h aus S

11.8 C

14.0 C

14.1 C

14.6 C

0 W/m

0.00 mm

11:20

15.1 C

1016.5 hpa

82 %

16.1 km/h aus 112

25.7 km/h aus S

12.0 C

13.2 C

13.3 C

15.0 C

0 W/m

0.00 mm

11:25

15.1 C

1016.5 hpa

79 %

14.5 km/h aus 112

22.5 km/h aus S

11.4 C

13.5 C

13.7 C

14.9 C

0 W/m

0.00 mm

11:30

15.6 C

1016.5 hpa

81 %

16.1 km/h aus 104

25.7 km/h aus S

12.3 C

13.8 C

13.9 C

15.5 C

0 W/m

0.00 mm

11:35

15.5 C

1016.5 hpa

78 %

14.5 km/h aus 106

27.4 km/h aus SSW

11.7 C

14.1 C

14.2 C

15.4 C

0 W/m

0.00 mm

11:40

15.5 C

1016.5 hpa

78 %

17.7 km/h aus 114

29.0 km/h aus SSW

11.7 C

13.3 C

13.4 C

15.4 C

0 W/m

0.00 mm

11:45

15.6 C

1016.5 hpa

78 %

14.5 km/h aus 111

29.0 km/h aus SSW

11.8 C

14.2 C

14.3 C

15.5 C

0 W/m

0.00 mm

11:50

16.1 C

1016.5 hpa

76 %

14.5 km/h aus 115

29.0 km/h aus S

11.8 C

14.8 C

14.9 C

15.9 C

0 W/m

0.00 mm

11:55

16.2 C

1016.5 hpa

75 %

14.5 km/h aus 109

30.6 km/h aus SSW

11.7 C

14.8 C

15.0 C

16.0 C

0 W/m

0.00 mm

12:00

15.9 C

1016.4 hpa

75 %

16.1 km/h aus 109

25.7 km/h aus S

11.5 C

14.2 C

14.3 C

15.8 C

0 W/m

0.00 mm

12:05

15.8 C

1016.4 hpa

76 %

14.5 km/h aus 111

24.1 km/h aus SSW

11.6 C

14.4 C

14.6 C

15.6 C

0 W/m

0.00 mm

12:10

15.9 C

1016.4 hpa

76 %

11.3 km/h aus 111

22.5 km/h aus SSW

11.7 C

15.4 C

15.6 C

15.8 C

0 W/m

0.00 mm

12:15

15.9 C

1016.2 hpa

74 %

16.1 km/h aus 106

25.7 km/h aus SW

11.3 C

14.1 C

14.3 C

15.7 C

0 W/m

0.00 mm

12:20

16.3 C

1016.2 hpa

75 %

11.3 km/h aus 110

24.1 km/h aus S

11.9 C

15.9 C

16.1 C

16.2 C

0 W/m

0.00 mm

12:25

16.2 C

1016.2 hpa

74 %

14.5 km/h aus 113

24.1 km/h aus SSW

11.5 C

14.8 C

15.0 C

15.9 C

0 W/m

0.00 mm

12:30

16.1 C

1016.3 hpa

75 %

16.1 km/h aus 110

25.7 km/h aus SSW

11.7 C

14.3 C

14.5 C

15.9 C

0 W/m

0.00 mm

12:35

16.6 C

1016.3 hpa

74 %

9.7 km/h aus 110

19.3 km/h aus SW

11.9 C

16.4 C

16.6 C

16.4 C

0 W/m

0.00 mm

12:40

16.7 C

1016.3 hpa

73 %

12.9 km/h aus 111

24.1 km/h aus SSW

11.8 C

15.9 C

16.1 C

16.5 C

0 W/m

0.00 mm

12:45

16.6 C

1016.0 hpa

73 %

12.9 km/h aus 106

22.5 km/h aus SW

11.7 C

15.8 C

16.0 C

16.4 C

0 W/m

0.00 mm

12:50

16.5 C

1016.0 hpa

72 %

14.5 km/h aus 113

24.1 km/h aus S

11.4 C

15.2 C

15.4 C

16.3 C

0 W/m

0.00 mm

12:55

16.4 C

1016.0 hpa

71 %

12.9 km/h aus 112

20.9 km/h aus SW

11.2 C

15.5 C

15.8 C

16.2 C

0 W/m

0.00 mm

13:00

16.4 C

1016.0 hpa

71 %

8.0 km/h aus 113

20.9 km/h aus W

11.2 C

16.2 C

16.4 C

16.2 C

0 W/m

0.00 mm

13:05

16.6 C

1016.0 hpa

71 %

9.7 km/h aus 110

17.7 km/h aus SSW

11.3 C

16.3 C

16.6 C

16.3 C

0 W/m

0.00 mm

13:10

16.5 C

1016.0 hpa

68 %

14.5 km/h aus 111

25.7 km/h aus WSW

10.6 C

15.1 C

15.4 C

16.2 C

0 W/m

0.00 mm

13:15

16.6 C

1016.0 hpa

68 %

8.0 km/h aus 112

19.3 km/h aus WSW

10.6 C

16.2 C

16.6 C

16.2 C

0 W/m

0.00 mm

13:20

16.7 C

1016.0 hpa

67 %

14.5 km/h aus 111

25.7 km/h aus SSW

10.6 C

15.3 C

15.6 C

16.4 C

0 W/m

0.00 mm

13:25

16.9 C

1016.0 hpa

66 %

12.9 km/h aus 114

25.7 km/h aus SW

10.5 C

16.0 C

16.3 C

16.6 C

0 W/m

0.00 mm

13:30

17.0 C

1015.8 hpa

66 %

11.3 km/h aus 115

29.0 km/h aus SW

10.6 C

16.6 C

16.9 C

16.7 C

0 W/m

0.00 mm

13:35

17.1 C

1015.8 hpa

65 %

16.1 km/h aus 114

27.4 km/h aus SSW

10.5 C

15.4 C

15.7 C

16.8 C

0 W/m

0.00 mm

13:40

17.0 C

1015.8 hpa

65 %

11.3 km/h aus 107

25.7 km/h aus SSW

10.4 C

16.6 C

16.9 C

16.7 C

0 W/m

0.00 mm

13:45

16.8 C

1015.9 hpa

65 %

9.7 km/h aus 111

17.7 km/h aus SSW

10.2 C

16.4 C

16.8 C

16.4 C

0 W/m

0.00 mm

13:50

16.6 C

1015.9 hpa

64 %

14.5 km/h aus 108

25.7 km/h aus SW

9.7 C

15.0 C

15.4 C

16.1 C

0 W/m

0.00 mm

13:55

16.6 C

1015.9 hpa

64 %

11.3 km/h aus 108

20.9 km/h aus W

9.8 C

16.0 C

16.4 C

16.2 C

0 W/m

0.00 mm

14:00

16.9 C

1015.9 hpa

67 %

9.7 km/h aus 107

19.3 km/h aus WNW

10.7 C

16.6 C

16.9 C

16.6 C

0 W/m

0.00 mm

14:05

17.4 C

1015.9 hpa

65 %

9.7 km/h aus 113

16.1 km/h aus WNW

10.8 C

17.1 C

17.4 C

17.1 C

0 W/m

0.00 mm

14:10

17.8 C

1015.9 hpa

63 %

8.0 km/h aus 113

19.3 km/h aus W

10.6 C

17.4 C

17.8 C

17.4 C

0 W/m

0.00 mm

14:15

18.1 C

1015.6 hpa

60 %

12.9 km/h aus 112

24.1 km/h aus NW

10.2 C

17.2 C

17.7 C

17.6 C

0 W/m

0.00 mm

14:20

17.7 C

1015.6 hpa

59 %

9.7 km/h aus 111

19.3 km/h aus W

9.6 C

17.2 C

17.7 C

17.2 C

0 W/m

0.00 mm

14:25

17.8 C

1015.6 hpa

63 %

8.0 km/h aus 112

22.5 km/h aus W

10.6 C

17.4 C

17.8 C

17.4 C

0 W/m

0.00 mm

14:30

17.9 C

1015.4 hpa

60 %

8.0 km/h aus 114

17.7 km/h aus SW

10.0 C

17.4 C

17.9 C

17.4 C

0 W/m

0.00 mm

14:35

17.6 C

1015.4 hpa

63 %

8.0 km/h aus 110

17.7 km/h aus WSW

10.5 C

17.2 C

17.6 C

17.2 C

0 W/m

0.00 mm

14:40

17.8 C

1015.4 hpa

61 %

8.0 km/h aus 114

22.5 km/h aus SW

10.2 C

17.4 C

17.8 C

17.4 C

0 W/m

0.00 mm

14:45

17.7 C

1015.3 hpa

61 %

8.0 km/h aus 113

17.7 km/h aus SW

10.0 C

17.2 C

17.7 C

17.2 C

0 W/m

0.00 mm

14:50

17.8 C

1015.3 hpa

60 %

12.9 km/h aus 115

25.7 km/h aus S

10.0 C

16.9 C

17.4 C

17.3 C

0 W/m

0.00 mm

14:55

17.8 C

1015.3 hpa

60 %

12.9 km/h aus 109

24.1 km/h aus SW

9.9 C

16.8 C

17.3 C

17.3 C

0 W/m

0.00 mm

15:00

17.7 C

1015.3 hpa

60 %

8.0 km/h aus 113

24.1 km/h aus SSW

9.9 C

17.2 C

17.7 C

17.2 C

0 W/m

0.00 mm

15:05

17.8 C

1015.3 hpa

58 %

11.3 km/h aus 111

22.5 km/h aus SW

9.4 C

17.2 C

17.8 C

17.2 C

0 W/m

0.00 mm

15:10

17.4 C

1015.3 hpa

59 %

9.7 km/h aus 111

20.9 km/h aus SW

9.3 C

16.8 C

17.4 C

16.8 C

0 W/m

0.00 mm

15:15

17.3 C

1015.2 hpa

60 %

8.0 km/h aus 110

22.5 km/h aus WSW

9.4 C

16.7 C

17.3 C

16.7 C

0 W/m

0.00 mm

15:20

17.3 C

1015.2 hpa

61 %

9.7 km/h aus 112

16.1 km/h aus W

9.7 C

16.8 C

17.3 C

16.8 C

0 W/m

0.00 mm

15:25

17.3 C

1015.2 hpa

61 %

4.8 km/h aus 113

9.7 km/h aus SW

9.7 C

16.7 C

17.3 C

16.7 C

0 W/m

0.00 mm

15:30

17.3 C

1015.2 hpa

63 %

6.4 km/h aus 116

16.1 km/h aus WSW

10.2 C

16.8 C

17.3 C

16.8 C

0 W/m

0.00 mm

15:35

17.8 C

1015.2 hpa

61 %

8.0 km/h aus 106

17.7 km/h aus NW

10.2 C

17.3 C

17.8 C

17.3 C

0 W/m

0.00 mm

15:40

18.1 C

1015.2 hpa

58 %

8.0 km/h aus 109

19.3 km/h aus WNW

9.7 C

17.5 C

18.1 C

17.5 C

0 W/m

0.00 mm

15:45

17.6 C

1015.1 hpa

58 %

9.7 km/h aus 114

19.3 km/h aus W

9.2 C

17.0 C

17.6 C

17.0 C

0 W/m

0.00 mm

15:50

17.8 C

1015.1 hpa

58 %

9.7 km/h aus 113

19.3 km/h aus WSW

9.4 C

17.2 C

17.8 C

17.2 C

0 W/m

0.00 mm

15:55

18.2 C

1015.1 hpa

58 %

8.0 km/h aus 106

16.1 km/h aus WSW

9.8 C

17.7 C

18.2 C

17.7 C

0 W/m

0.00 mm

16:00

18.3 C

1015.2 hpa

57 %

9.7 km/h aus 114

20.9 km/h aus WSW

9.6 C

17.7 C

18.3 C

17.7 C

0 W/m

0.00 mm

16:05

18.3 C

1015.2 hpa

57 %

11.3 km/h aus 110

20.9 km/h aus WSW

9.6 C

17.7 C

18.3 C

17.7 C

0 W/m

0.00 mm

16:10

18.3 C

1015.2 hpa

56 %

9.7 km/h aus 116

20.9 km/h aus W

9.4 C

17.7 C

18.3 C

17.7 C

0 W/m

0.00 mm

16:15

18.1 C

1015.0 hpa

56 %

9.7 km/h aus 115

20.9 km/h aus W

9.2 C

17.4 C

18.1 C

17.4 C

0 W/m

0.00 mm

16:20

18.1 C

1015.0 hpa

58 %

6.4 km/h aus 109

16.1 km/h aus SW

9.7 C

17.5 C

18.1 C

17.5 C

0 W/m

0.00 mm

16:25

18.2 C

1015.0 hpa

58 %

9.7 km/h aus 113

19.3 km/h aus W

9.8 C

17.7 C

18.2 C

17.7 C

0 W/m

0.00 mm

16:30

18.2 C

1015.0 hpa

56 %

9.7 km/h aus 113

20.9 km/h aus WSW

9.3 C

17.6 C

18.2 C

17.6 C

0 W/m

0.00 mm

16:35

18.2 C

1015.0 hpa

57 %

8.0 km/h aus 114

16.1 km/h aus W

9.5 C

17.6 C

18.2 C

17.6 C

0 W/m

0.00 mm

16:40

18.1 C

1015.0 hpa

56 %

8.0 km/h aus 111

17.7 km/h aus W

9.2 C

17.4 C

18.1 C

17.4 C

0 W/m

0.00 mm

16:45

18.3 C

1014.9 hpa

56 %

8.0 km/h aus 112

17.7 km/h aus W

9.3 C

17.7 C

18.3 C

17.7 C

0 W/m

0.00 mm

16:50

18.2 C

1014.9 hpa

56 %

6.4 km/h aus 116

11.3 km/h aus WSW

9.3 C

17.6 C

18.2 C

17.6 C

0 W/m

0.00 mm

16:55

18.3 C

1014.9 hpa

56 %

6.4 km/h aus 116

17.7 km/h aus SW

9.4 C

17.7 C

18.3 C

17.7 C

0 W/m

0.00 mm

17:00

18.2 C

1014.9 hpa

55 %

8.0 km/h aus 115

19.3 km/h aus WNW

9.0 C

17.6 C

18.2 C

17.6 C

0 W/m

0.00 mm

17:05

18.2 C

1014.9 hpa

58 %

8.0 km/h aus 115

14.5 km/h aus W

9.8 C

17.6 C

18.2 C

17.6 C

0 W/m

0.00 mm

17:10

18.1 C

1014.9 hpa

56 %

8.0 km/h aus 113

14.5 km/h aus WSW

9.2 C

17.4 C

18.1 C

17.4 C

0 W/m

0.00 mm

17:15

17.9 C

1014.9 hpa

56 %

8.0 km/h aus 113

16.1 km/h aus SW

9.0 C

17.3 C

17.9 C

17.3 C

0 W/m

0.00 mm

17:20

17.9 C

1014.9 hpa

58 %

4.8 km/h aus 116

9.7 km/h aus SW

9.6 C

17.4 C

17.9 C

17.4 C

0 W/m

0.00 mm

17:25

17.8 C

1014.9 hpa

58 %

6.4 km/h aus 113

16.1 km/h aus WNW

9.4 C

17.2 C

17.8 C

17.2 C

0 W/m

0.00 mm

17:30

17.7 C

1014.9 hpa

57 %

6.4 km/h aus 115

14.5 km/h aus W

9.0 C

17.0 C

17.7 C

17.0 C

0 W/m

0.00 mm

17:35

17.6 C

1014.9 hpa

58 %

6.4 km/h aus 114

14.5 km/h aus W

9.2 C

16.9 C

17.6 C

16.9 C

0 W/m

0.00 mm

17:40

17.5 C

1014.9 hpa

57 %

6.4 km/h aus 114

12.9 km/h aus SW

8.9 C

16.8 C

17.5 C

16.8 C

0 W/m

0.00 mm

17:45

17.4 C

1014.9 hpa

58 %

6.4 km/h aus 114

11.3 km/h aus WSW

9.1 C

16.8 C

17.4 C

16.8 C

0 W/m

0.00 mm

17:50

17.6 C

1014.9 hpa

58 %

3.2 km/h aus 113

6.4 km/h aus W

9.2 C

17.0 C

17.6 C

17.0 C

0 W/m

0.00 mm

17:55

17.6 C

1014.9 hpa

60 %

4.8 km/h aus 112

11.3 km/h aus WNW

9.7 C

17.1 C

17.6 C

17.1 C

0 W/m

0.00 mm

18:00

17.4 C

1014.9 hpa

59 %

8.0 km/h aus 113

16.1 km/h aus WNW

9.3 C

16.8 C

17.4 C

16.8 C

0 W/m

0.00 mm

18:05

17.3 C

1014.9 hpa

59 %

6.4 km/h aus 110

11.3 km/h aus WNW

9.2 C

16.7 C

17.3 C

16.7 C

0 W/m

0.00 mm

18:10

17.1 C

1014.9 hpa

60 %

4.8 km/h aus 109

9.7 km/h aus W

9.3 C

16.5 C

17.1 C

16.5 C

0 W/m

0.00 mm

18:15

17.0 C

1014.9 hpa

59 %

4.8 km/h aus 111

9.7 km/h aus W

8.9 C

16.3 C

17.0 C

16.3 C

0 W/m

0.00 mm

18:20

16.8 C

1014.9 hpa

60 %

6.4 km/h aus 110

16.1 km/h aus WNW

9.0 C

16.2 C

16.8 C

16.2 C

0 W/m

0.00 mm

18:25

16.8 C

1014.9 hpa

61 %

4.8 km/h aus 108

9.7 km/h aus WNW

9.2 C

16.2 C

16.8 C

16.2 C

0 W/m

0.00 mm

18:30

16.6 C

1015.0 hpa

62 %

3.2 km/h aus 109

9.7 km/h aus WNW

9.3 C

16.1 C

16.6 C

16.1 C

0 W/m

0.00 mm

18:35

16.4 C

1015.0 hpa

64 %

1.6 km/h aus 108

6.4 km/h aus WNW

9.6 C

16.0 C

16.4 C

16.0 C

0 W/m

0.00 mm

18:40

16.2 C

1015.0 hpa

64 %

3.2 km/h aus 106

8.0 km/h aus WNW

9.4 C

15.7 C

16.2 C

15.7 C

0 W/m

0.00 mm

18:45

16.1 C

1015.0 hpa

65 %

3.2 km/h aus 110

8.0 km/h aus WNW

9.5 C

15.6 C

16.1 C

15.6 C

0 W/m

0.00 mm

18:50

15.9 C

1015.0 hpa

66 %

3.2 km/h aus 108

8.0 km/h aus WNW

9.5 C

15.4 C

15.9 C

15.4 C

0 W/m

0.00 mm

18:55

15.7 C

1015.0 hpa

67 %

1.6 km/h aus 111

4.8 km/h aus WNW

9.6 C

15.2 C

15.7 C

15.2 C

0 W/m

0.00 mm

19:00

15.4 C

1015.0 hpa

68 %

1.6 km/h aus 111

3.2 km/h aus WNW

9.6 C

15.1 C

15.4 C

15.1 C

0 W/m

0.00 mm

19:05

15.0 C

1015.0 hpa

70 %

1.6 km/h aus 110

4.8 km/h aus WNW

9.6 C

14.6 C

15.0 C

14.6 C

0 W/m

0.00 mm

19:10

14.7 C

1015.0 hpa

72 %

0.0 km/h aus 115

1.6 km/h aus WNW

9.7 C

14.4 C

14.7 C

14.4 C

0 W/m

0.00 mm

19:15

14.4 C

1015.3 hpa

74 %

0.0 km/h aus 110

1.6 km/h aus WNW

9.8 C

14.1 C

14.4 C

14.1 C

0 W/m

0.00 mm

19:20

14.1 C

1015.3 hpa

75 %

0.0 km/h aus 112

0.0 km/h aus ---

9.7 C

13.8 C

14.1 C

13.8 C

0 W/m

0.00 mm

19:25

13.7 C

1015.3 hpa

76 %

0.0 km/h aus 107

0.0 km/h aus ---

9.6 C

13.4 C

13.7 C

13.4 C

0 W/m

0.00 mm

19:30

13.4 C

1015.4 hpa

78 %

0.0 km/h aus 111

0.0 km/h aus ---

9.6 C

13.2 C

13.4 C

13.2 C

0 W/m

0.00 mm

19:35

13.1 C

1015.4 hpa

79 %

0.0 km/h aus 112

0.0 km/h aus ---

9.5 C

12.9 C

13.1 C

12.9 C

0 W/m

0.00 mm

19:40

12.9 C

1015.4 hpa

80 %

0.0 km/h aus 103

0.0 km/h aus ---

9.5 C

12.7 C

12.9 C

12.7 C

0 W/m

0.00 mm

19:45

12.7 C

1015.4 hpa

81 %

0.0 km/h aus 112

1.6 km/h aus WNW

9.5 C

12.6 C

12.7 C

12.6 C

0 W/m

0.00 mm

19:50

12.5 C

1015.4 hpa

81 %

1.6 km/h aus 109

4.8 km/h aus WNW

9.3 C

12.3 C

12.5 C

12.3 C

0 W/m

0.00 mm

19:55

12.2 C

1015.4 hpa

82 %

0.0 km/h aus 110

3.2 km/h aus WNW

9.2 C

12.1 C

12.2 C

12.1 C

0 W/m

0.00 mm

20:00

12.1 C

1015.4 hpa

83 %

0.0 km/h aus 113

1.6 km/h aus WNW

9.3 C

12.0 C

12.1 C

12.0 C

0 W/m

0.00 mm

20:05

12.0 C

1015.4 hpa

84 %

0.0 km/h aus 110

3.2 km/h aus WNW

9.4 C

11.9 C

12.0 C

11.9 C

0 W/m

0.00 mm

20:10

11.9 C

1015.4 hpa

84 %

0.0 km/h aus 111

3.2 km/h aus WNW

9.3 C

11.8 C

11.9 C

11.8 C

0 W/m

0.00 mm

20:15

11.7 C

1015.4 hpa

84 %

0.0 km/h aus 108

1.6 km/h aus WNW

9.1 C

11.7 C

11.7 C

11.7 C

0 W/m

0.00 mm

20:20

11.6 C

1015.4 hpa

85 %

0.0 km/h aus 106

1.6 km/h aus WNW

9.1 C

11.5 C

11.6 C

11.5 C

0 W/m

0.00 mm

20:25

11.4 C

1015.4 hpa

86 %

0.0 km/h aus 111

3.2 km/h aus WNW

9.1 C

11.4 C

11.4 C

11.4 C

0 W/m

0.00 mm

20:30

11.3 C

1015.4 hpa

87 %

0.0 km/h aus 108

3.2 km/h aus WNW

9.2 C

11.3 C

11.3 C

11.3 C

0 W/m

0.00 mm

20:35

11.2 C

1015.4 hpa

87 %

0.0 km/h aus 104

0.0 km/h aus ---

9.1 C

11.3 C

11.2 C

11.3 C

0 W/m

0.00 mm

20:40

11.1 C

1015.4 hpa

88 %

0.0 km/h aus 113

3.2 km/h aus WNW

9.2 C

11.2 C

11.1 C

11.2 C

0 W/m

0.00 mm

20:45

11.0 C

1015.4 hpa

88 %

0.0 km/h aus 109

1.6 km/h aus WNW

9.1 C

11.1 C

11.0 C

11.1 C

0 W/m

0.00 mm

20:50

10.8 C

1015.4 hpa

88 %

0.0 km/h aus 110

1.6 km/h aus WNW

8.9 C

10.9 C

10.8 C

10.9 C

0 W/m

0.00 mm

20:55

10.8 C

1015.4 hpa

89 %

0.0 km/h aus 109

1.6 km/h aus WNW

9.0 C

10.9 C

10.8 C

10.9 C

0 W/m

0.00 mm

21:00

10.7 C

1015.5 hpa

89 %

0.0 km/h aus 111

1.6 km/h aus WNW

8.9 C

10.8 C

10.7 C

10.8 C

0 W/m

0.00 mm

21:05

10.7 C

1015.5 hpa

89 %

0.0 km/h aus 105

3.2 km/h aus WNW

8.9 C

10.8 C

10.7 C

10.8 C

0 W/m

0.00 mm

21:10

10.7 C

1015.5 hpa

89 %

0.0 km/h aus 110

1.6 km/h aus WNW

8.9 C

10.8 C

10.7 C

10.8 C

0 W/m

0.00 mm

21:15

10.5 C

1015.7 hpa

90 %

0.0 km/h aus 108

0.0 km/h aus ---

8.9 C

10.6 C

10.5 C

10.6 C

0 W/m

0.00 mm

21:20

10.4 C

1015.7 hpa

90 %

0.0 km/h aus 111

0.0 km/h aus ---

8.8 C

10.5 C

10.4 C

10.5 C

0 W/m

0.00 mm

21:25

10.4 C

1015.7 hpa

90 %

0.0 km/h aus 111

1.6 km/h aus WNW

8.9 C

10.6 C

10.4 C

10.6 C

0 W/m

0.00 mm

21:30

10.3 C

1015.7 hpa

91 %

0.0 km/h aus 107

1.6 km/h aus WNW

8.9 C

10.4 C

10.3 C

10.4 C

0 W/m

0.00 mm

21:35

10.2 C

1015.7 hpa

90 %

0.0 km/h aus 108

0.0 km/h aus ---

8.7 C

10.4 C

10.2 C

10.4 C

0 W/m

0.00 mm

21:40

10.0 C

1015.7 hpa

90 %

0.0 km/h aus 103

0.0 km/h aus ---

8.4 C

10.2 C

10.0 C

10.2 C

0 W/m

0.00 mm

21:45

9.9 C

1015.6 hpa

91 %

0.0 km/h aus 103

0.0 km/h aus ---

8.5 C

10.1 C

9.9 C

10.1 C

0 W/m

0.00 mm

21:50

9.9 C

1015.6 hpa

91 %

0.0 km/h aus 108

0.0 km/h aus ---

8.5 C

10.1 C

9.9 C

10.1 C

0 W/m

0.00 mm

21:55

9.8 C

1015.6 hpa

91 %

0.0 km/h aus 106

0.0 km/h aus ---

8.4 C

10.0 C

9.8 C

10.0 C

0 W/m

0.00 mm

22:00

9.7 C

1015.6 hpa

91 %

0.0 km/h aus 106

0.0 km/h aus ---

8.3 C

9.8 C

9.7 C

9.8 C

0 W/m

0.00 mm

22:05

9.6 C

1015.6 hpa

91 %

0.0 km/h aus 107

0.0 km/h aus ---

8.2 C

9.8 C

9.6 C

9.8 C

0 W/m

0.00 mm

22:10

9.7 C

1015.6 hpa

91 %

0.0 km/h aus 111

0.0 km/h aus ---

8.3 C

9.8 C

9.7 C

9.8 C

0 W/m

0.00 mm

22:15

9.6 C

1015.5 hpa

91 %

0.0 km/h aus 113

1.6 km/h aus WNW

8.2 C

9.7 C

9.6 C

9.7 C

0 W/m

0.00 mm

22:20

9.5 C

1015.5 hpa

91 %

0.0 km/h aus 104

1.6 km/h aus WNW

8.1 C

9.7 C

9.5 C

9.7 C

0 W/m

0.00 mm

22:25

9.3 C

1015.5 hpa

92 %

0.0 km/h aus 106

1.6 km/h aus WNW

8.1 C

9.6 C

9.3 C

9.6 C

0 W/m

0.00 mm

22:30

9.3 C

1015.7 hpa

92 %

0.0 km/h aus 102

1.6 km/h aus WNW

8.0 C

9.5 C

9.3 C

9.5 C

0 W/m

0.00 mm

22:35

9.3 C

1015.7 hpa

92 %

0.0 km/h aus 107

1.6 km/h aus WNW

8.1 C

9.6 C

9.3 C

9.6 C

0 W/m

0.00 mm

22:40

9.3 C

1015.7 hpa

92 %

0.0 km/h aus 113

1.6 km/h aus WNW

8.1 C

9.6 C

9.3 C

9.6 C

0 W/m

0.00 mm

22:45

9.3 C

1015.9 hpa

92 %

0.0 km/h aus 109

0.0 km/h aus ---

8.1 C

9.6 C

9.3 C

9.6 C

0 W/m

0.00 mm

22:50

9.3 C

1015.9 hpa

92 %

0.0 km/h aus 113

3.2 km/h aus WNW

8.0 C

9.5 C

9.3 C

9.5 C

0 W/m

0.00 mm

22:55

9.3 C

1015.9 hpa

92 %

0.0 km/h aus 111

1.6 km/h aus WNW

8.0 C

9.5 C

9.3 C

9.5 C

0 W/m

0.00 mm

23:00

9.2 C

1015.9 hpa

92 %

0.0 km/h aus 110

3.2 km/h aus WNW

8.0 C

9.4 C

9.2 C

9.4 C

0 W/m

0.00 mm

23:05

9.2 C

1015.9 hpa

92 %

0.0 km/h aus 107

1.6 km/h aus WNW

7.9 C

9.3 C

9.2 C

9.3 C

0 W/m

0.00 mm

23:10

9.1 C

1015.9 hpa

92 %

0.0 km/h aus 108

1.6 km/h aus WNW

7.8 C

9.2 C

9.1 C

9.2 C

0 W/m

0.00 mm

23:15

8.9 C

1015.8 hpa

92 %

0.0 km/h aus 110

3.2 km/h aus WNW

7.7 C

9.1 C

8.9 C

9.1 C

0 W/m

0.00 mm

23:20

8.9 C

1015.8 hpa

92 %

0.0 km/h aus 108

3.2 km/h aus WNW

7.7 C

9.1 C

8.9 C

9.1 C

0 W/m

0.00 mm

23:25

8.8 C

1015.8 hpa

92 %

1.6 km/h aus 107

3.2 km/h aus WNW

7.6 C

9.0 C

8.8 C

9.0 C

0 W/m

0.00 mm

23:30

8.9 C

1015.9 hpa

93 %

0.0 km/h aus 111

1.6 km/h aus WNW

7.8 C

9.1 C

8.9 C

9.1 C

0 W/m

0.00 mm

23:35

8.8 C

1015.9 hpa

92 %

0.0 km/h aus 111

1.6 km/h aus WNW

7.5 C

8.9 C

8.8 C

8.9 C

0 W/m

0.00 mm

23:40

8.6 C

1015.9 hpa

92 %

0.0 km/h aus 108

1.6 km/h aus WNW

7.3 C

8.7 C

8.6 C

8.7 C

0 W/m

0.00 mm

23:45

8.6 C

1015.9 hpa

93 %

0.0 km/h aus 112

0.0 km/h aus ---

7.5 C

8.7 C

8.6 C

8.7 C

0 W/m

0.00 mm

23:50

8.6 C

1015.9 hpa

93 %

0.0 km/h aus 112

0.0 km/h aus ---

7.5 C

8.7 C

8.6 C

8.7 C

0 W/m

0.00 mm

23:55

8.7 C

1015.9 hpa

93 %

0.0 km/h aus 110

0.0 km/h aus ---

7.6 C

8.8 C

8.7 C

8.8 C

0 W/m

0.00 mm